Location: Ferques
(50.8300°N, 1.7599°E)
Time: 04:20:08
(UTC+00:00)

Meteor 2-6 Rocket - Pass Details

Date: 19 May 2025
Orbit: 804 x 913 km, 81.3° (Epoch: 13 June)

Event Time Altitude Azimuth Distance (km) Brightness Sun altitude
Exits shadow 21:30:18 14° 172° (S) 2,270 5.9 -12.9°
Maximum altitude 21:35:14 59° 96° (E) 1,013 4.4 -13.3°
Drops below altitude 10° 21:40:51 10° 19° (NNE) 2,516 7.2 -13.8°
Sets 21:43:17 0° 16° (NNE) 3,440 8.1 -13.9°
